Content
SEND FEEDBACK

Daily
Averages
Monthly
Summary
Indonesia

SURABAYA, INDONESIA


Home > Asia > Indonesia
Elevation: 10 feet     Latitude: 07 13S     Longitude: 112 43E

WEATHER
 
SELECT A DAY
Number of Records: 85,636;   Date Range: 10/5/04 - 8/31/14
 
SHARE

PRINT THIS DATA

[ ← Previous Day ]
WEATHER ALMANAC - JANUARY 23, 2013
[ Next Day → ]
[ °C ]   °F
Weather ElementAverageHighLow
Temperature82.8 °F91.4 °F (1:30 pm)77 °F (3:30 am)
Dewpoint72.8 °F75.2 °F (7:00 am)69.8 °F (3:00 pm)
Humidity72.3 %89 % (7:00 am)52 % (1:30 pm)
Barometer29.80 in29.86 in (9:00 pm)29.74 in (1:00 pm)
Wind Speed11 mph21.9 mph (2:30 pm)
Weather ElementAverage
Visibility5.8 mi
Wind DirectionWNW (276.1 °)

Weather ElementTotal
Precipitation---
Cooling Degree Days19.2 (Base 65)
Growing Degree Days34.2 (Base 50)
Averaged from 31 records on January 23, 2013
WEATHER CONDITIONS BREAKOUT
WIND DIRECTION BREAKOUT
WEATHER BY HOUR - JANUARY 23, 2013
[ °C ]   °F
Local TimeTemperatureDewpointHumidityBarometerVisibilityWind DirectionWind SpeedGust SpeedPrecipitationEventsConditions
3:30 AM77.0 °F71.6 °F83 %29.80 in6.2 miWest (280°)6.9 mphPartly Cloudy
6:00 AM77.0 °F71.6 °F83 %29.80 in5.0 miWest (270°)4.6 mphPartly Cloudy
7:00 AM78.8 °F75.2 °F89 %29.83 in2.2 miWest (260°)4.6 mphHaze
7:30 AM82.4 °F75.2 °F79 %29.83 in2.2 miWest (280°)5.8 mphHaze
8:00 AM82.4 °F75.2 °F79 %29.83 in3.1 miWest (280°)8.1 mphHaze
8:30 AM84.2 °F73.4 °F70 %29.83 in6.2 miWest (280°)12.7 mphPartly Cloudy
9:00 AM84.2 °F75.2 °F74 %29.83 in6.2 miWest (280°)11.5 mphPartly Cloudy
9:30 AM84.2 °F73.4 °F70 %29.83 in6.2 miWNW (290°)11.5 mphScattered Clouds
10:30 AM86.0 °F73.4 °F66 %29.80 in6.2 miWNW (300°)11.5 mphScattered Clouds
12:00 PM89.6 °F71.6 °F55 %29.77 in6.2 miWest (270°)11.5 mphPartly Cloudy
12:30 PM87.8 °F71.6 °F58 %29.77 in6.2 miWest (280°)12.7 mphPartly Cloudy
1:00 PM89.6 °F73.4 °F59 %29.74 in6.2 miWNW (290°)13.8 mphPartly Cloudy
1:30 PM91.4 °F71.6 °F52 %29.74 in6.2 miWNW (300°)16.1 mphPartly Cloudy
2:00 PM87.8 °F73.4 °F62 %29.74 inNorthPartly Cloudy
2:30 PM84.2 °F73.4 °F70 %29.74 in6.2 miNW (310°)21.9 mphScattered Clouds
3:00 PM84.2 °F69.8 °F62 %29.74 in6.2 miNW (310°)18.4 mphPartly Cloudy
3:30 PM84.2 °F71.6 °F66 %29.74 in6.2 miWNW (300°)15.0 mphPartly Cloudy
4:00 PM84.2 °F73.4 °F70 %29.74 in6.2 miNNW (330°)12.7 mphPartly Cloudy
4:30 PM84.2 °F73.4 °F70 %29.74 in6.2 miNW (320°)15.0 mphPartly Cloudy
5:00 PM84.2 °F73.4 °F70 %29.74 in6.2 miNW (320°)15.0 mphPartly Cloudy
5:30 PM82.4 °F73.4 °F74 %29.77 in6.2 miWNW (290°)15.0 mphPartly Cloudy
6:00 PM82.4 °F73.4 °F74 %29.77 in6.2 miWNW (300°)13.8 mphPartly Cloudy
6:30 PM82.4 °F73.4 °F74 %29.80 in6.2 miWNW (300°)9.2 mphScattered Clouds
7:00 PM80.6 °F75.2 °F84 %29.80 in6.2 miWest (280°)11.5 mphScattered Clouds
7:30 PM80.6 °F71.6 °F74 %29.83 in6.2 miWSW (250°)10.4 mphPartly Cloudy
8:00 PM80.6 °F71.6 °F74 %29.83 in6.2 miWest (270°)8.1 mphPartly Cloudy
8:30 PM78.8 °F71.6 °F78 %29.83 in6.2 miWSW (250°)9.2 mphPartly Cloudy
9:00 PM78.8 °F71.6 °F78 %29.86 in6.2 miWest (260°)6.9 mphPartly Cloudy
9:30 PM77.0 °F71.6 °F83 %29.86 in6.2 miWest (270°)5.8 mphPartly Cloudy
10:00 PM78.8 °F71.6 °F78 %29.86 in6.2 miWest (260°)5.8 mphPartly Cloudy
11:00 PM77.0 °F71.6 °F83 %29.86 inWest (280°)5.8 mphClear
Hourly data recorded from WARR, located miles away from Surabaya, Indonesia







STORIES FROM OUR PARTNERS